Time,TemperatureF,DewpointF,PressureIn,WindDirection,WindDirectionDegrees,WindSpeedMPH,WindSpeedGustMPH,Humidity,HourlyPrecipIn,Conditions,Clouds,dailyrainin,SoftwareType,DateUTC
2013-04-22 00:32:00,47.0,46.0,-100.00,WSW,255,9.0,14.0,99,0.00,,,0.00,,2013-04-22 00:32:00,
2013-04-22 00:42:00,46.0,46.0,-100.00,West,260,7.0,11.0,99,0.00,,,0.00,,2013-04-22 00:42:00,
2013-04-22 01:12:00,45.0,45.0,-100.00,West,260,9.0,15.0,99,0.00,,,0.00,,2013-04-22 01:12:00,
2013-04-22 01:41:00,43.0,43.0,-100.00,West,265,14.0,17.0,99,0.00,,,0.00,,2013-04-22 01:41:00,
2013-04-22 01:52:00,43.0,43.0,-100.00,West,280,12.0,16.0,99,0.00,,,0.00,,2013-04-22 01:52:00,
2013-04-22 02:32:00,42.0,41.0,-100.00,WNW,285,8.0,14.0,99,0.00,,,0.00,,2013-04-22 02:32:00,
2013-04-22 02:42:00,41.0,41.0,-100.00,West,280,7.0,9.0,99,0.00,,,0.00,,2013-04-22 02:42:00,
2013-04-22 02:52:00,41.0,41.0,-100.00,West,280,9.0,12.0,99,0.00,,,0.00,,2013-04-22 02:52:00,
2013-04-22 04:03:00,40.0,39.0,-100.00,WNW,290,7.0,9.0,99,0.00,,,0.00,,2013-04-22 04:03:00,
2013-04-22 04:12:00,40.0,39.0,-100.00,WNW,290,7.0,8.0,99,0.00,,,0.00,,2013-04-22 04:12:00,
2013-04-22 04:23:00,40.0,39.0,-100.00,WNW,300,9.0,14.0,99,0.00,,,0.00,,2013-04-22 04:23:00,
2013-04-22 04:33:00,39.0,39.0,-100.00,WNW,300,12.0,14.0,99,0.00,,,0.00,,2013-04-22 04:33:00,
2013-04-22 05:12:00,38.0,37.0,-100.00,NW,315,8.0,12.0,99,0.00,,,0.00,,2013-04-22 05:12:00,
2013-04-22 05:22:00,38.0,37.0,-100.00,NW,320,12.0,16.0,99,0.00,,,0.00,,2013-04-22 05:22:00,
2013-04-22 05:32:00,38.0,37.0,-100.00,NW,310,9.0,12.0,99,0.00,,,0.00,,2013-04-22 05:32:00,
2013-04-22 05:42:00,38.0,37.0,-100.00,NW,310,11.0,13.0,99,0.00,,,0.00,,2013-04-22 05:42:00,
2013-04-22 05:52:00,37.0,37.0,-100.00,NW,315,11.0,14.0,99,0.00,,,0.00,,2013-04-22 05:52:00,
2013-04-22 06:02:00,38.0,37.0,-100.00,NW,325,11.0,14.0,99,0.00,,,0.00,,2013-04-22 06:02:00,
2013-04-22 06:12:00,37.0,37.0,-100.00,NNW,330,10.0,14.0,99,0.00,,,0.00,,2013-04-22 06:12:00,
2013-04-22 06:21:00,37.0,37.0,-100.00,NNW,340,10.0,12.0,99,0.00,,,0.00,,2013-04-22 06:21:00,
2013-04-22 06:32:00,37.0,37.0,-100.00,North,355,8.0,12.0,99,0.00,,,0.00,,2013-04-22 06:32:00,
2013-04-22 06:42:00,37.0,37.0,-100.00,North,350,7.0,9.0,99,0.00,,,0.00,,2013-04-22 06:42:00,
2013-04-22 10:03:00,36.0,36.0,-100.00,North,350,8.0,10.0,99,0.00,,,0.00,,2013-04-22 10:03:00,
2013-04-22 10:12:00,36.0,36.0,-100.00,North,355,8.0,9.0,98,0.00,,,0.00,,2013-04-22 10:12:00,
2013-04-22 10:22:00,36.0,36.0,-100.00,North,355,10.0,14.0,95,0.00,,,0.00,,2013-04-22 10:22:00,
2013-04-22 10:32:00,36.0,36.0,-100.00,North,0,7.0,11.0,94,0.00,,,0.00,,2013-04-22 10:32:00,
2013-04-22 10:42:00,36.0,34.0,-100.00,North,0,14.0,16.0,93,0.00,,,0.00,,2013-04-22 10:42:00,
2013-04-22 10:52:00,36.0,34.0,-100.00,North,0,12.0,14.0,91,0.00,,,0.00,,2013-04-22 10:52:00,
2013-04-22 11:02:00,36.0,34.0,-100.00,North,0,9.0,15.0,91,0.00,,,0.00,,2013-04-22 11:02:00,
2013-04-22 11:12:00,36.0,34.0,-100.00,North,0,9.0,12.0,91,0.00,,,0.00,,2013-04-22 11:12:00,
2013-04-22 11:22:00,36.0,34.0,-100.00,North,355,10.0,12.0,91,0.00,,,0.00,,2013-04-22 11:22:00,
2013-04-22 11:32:00,36.0,34.0,-100.00,North,5,7.0,14.0,91,0.00,,,0.00,,2013-04-22 11:32:00,
2013-04-22 11:42:00,36.0,34.0,-100.00,North,5,7.0,10.0,91,0.00,,,0.00,,2013-04-22 11:42:00,
2013-04-22 11:52:00,36.0,34.0,-100.00,North,0,7.0,10.0,92,0.00,,,0.00,,2013-04-22 11:52:00,
2013-04-22 12:02:00,36.0,34.0,-100.00,North,0,6.0,9.0,93,0.00,,,0.00,,2013-04-22 12:02:00,
2013-04-22 12:12:00,36.0,34.0,-100.00,North,10,6.0,9.0,93,0.00,,,0.00,,2013-04-22 12:12:00,
2013-04-22 12:21:00,36.0,34.0,-100.00,North,0,10.0,12.0,94,0.00,,,0.00,,2013-04-22 12:21:00,
2013-04-22 12:32:00,36.0,34.0,-100.00,North,350,11.0,14.0,94,0.00,,,0.00,,2013-04-22 12:32:00,
2013-04-22 12:42:00,36.0,34.0,-100.00,North,0,10.0,14.0,94,0.00,,,0.00,,2013-04-22 12:42:00,
2013-04-22 12:52:00,36.0,36.0,-100.00,NNE,15,8.0,14.0,95,0.00,,,0.00,,2013-04-22 12:52:00,
2013-04-22 13:01:00,36.0,36.0,-100.00,NNE,20,9.0,14.0,94,0.00,,,0.00,,2013-04-22 13:01:00,
2013-04-22 13:11:00,36.0,36.0,-100.00,North,10,11.0,14.0,94,0.00,,,0.00,,2013-04-22 13:11:00,
2013-04-22 13:22:00,37.0,36.0,-100.00,NNE,25,10.0,15.0,93,0.00,,,0.00,,2013-04-22 13:22:00,
2013-04-22 13:32:00,36.0,34.0,-100.00,NNE,20,13.0,16.0,91,0.00,,,0.00,,2013-04-22 13:32:00,
2013-04-22 13:41:00,37.0,34.0,-100.00,NNE,25,12.0,16.0,90,0.00,,,0.00,,2013-04-22 13:41:00,
2013-04-22 13:52:00,37.0,34.0,-100.00,NNE,30,9.0,15.0,89,0.00,,,0.00,,2013-04-22 13:52:00,
2013-04-22 14:02:00,37.0,34.0,-100.00,NE,45,10.0,15.0,87,0.00,,,0.00,,2013-04-22 14:02:00,
2013-04-22 14:11:00,38.0,34.0,-100.00,NE,40,7.0,15.0,87,0.00,,,0.00,,2013-04-22 14:11:00,
2013-04-22 14:21:00,37.0,34.0,-100.00,NE,35,12.0,15.0,87,0.00,,,0.00,,2013-04-22 14:21:00,
2013-04-22 14:33:00,38.0,34.0,-100.00,NNE,25,10.0,15.0,86,0.00,,,0.00,,2013-04-22 14:33:00,
2013-04-22 14:42:00,38.0,34.0,-100.00,NNE,25,11.0,14.0,86,0.00,,,0.00,,2013-04-22 14:42:00,
2013-04-22 14:52:00,39.0,36.0,-100.00,NNE,15,11.0,14.0,85,0.00,,,0.00,,2013-04-22 14:52:00,
2013-04-22 15:01:00,38.0,34.0,-100.00,NNE,25,12.0,15.0,85,0.00,,,0.00,,2013-04-22 15:01:00,
2013-04-22 15:12:00,39.0,36.0,-100.00,NNE,30,12.0,16.0,86,0.00,,,0.00,,2013-04-22 15:12:00,
2013-04-22 15:22:00,39.0,36.0,-100.00,NNE,20,15.0,17.0,85,0.00,,,0.00,,2013-04-22 15:22:00,
2013-04-22 15:33:00,39.0,36.0,-100.00,NNE,30,9.0,16.0,85,0.00,,,0.00,,2013-04-22 15:33:00,
2013-04-22 15:43:00,39.0,34.0,-100.00,NNE,30,9.0,13.0,83,0.00,,,0.00,,2013-04-22 15:43:00,
2013-04-22 15:53:00,39.0,36.0,-100.00,North,10,12.0,15.0,84,0.00,,,0.00,,2013-04-22 15:53:00,
2013-04-22 16:02:00,41.0,36.0,-100.00,North,10,12.0,16.0,83,0.00,,,0.00,,2013-04-22 16:02:00,
2013-04-22 16:12:00,40.0,36.0,-100.00,North,0,14.0,17.0,82,0.00,,,0.00,,2013-04-22 16:12:00,
2013-04-22 16:23:00,40.0,36.0,-100.00,NNE,20,16.0,21.0,80,0.00,,,0.00,,2013-04-22 16:23:00,
2013-04-22 16:33:00,41.0,36.0,-100.00,NNE,15,17.0,21.0,81,0.00,,,0.00,,2013-04-22 16:33:00,
2013-04-22 16:42:00,42.0,36.0,-100.00,NNE,25,14.0,20.0,78,0.00,,,0.00,,2013-04-22 16:42:00,
2013-04-22 16:52:00,42.0,36.0,-100.00,NE,35,17.0,23.0,76,0.00,,,0.00,,2013-04-22 16:52:00,
2013-04-22 17:02:00,41.0,34.0,-100.00,North,10,15.0,20.0,76,0.00,,,0.00,,2013-04-22 17:02:00,
2013-04-22 17:12:00,41.0,34.0,-100.00,North,10,18.0,24.0,76,0.00,,,0.00,,2013-04-22 17:12:00,
2013-04-22 17:22:00,41.0,34.0,-100.00,NNE,25,17.0,25.0,75,0.00,,,0.00,,2013-04-22 17:22:00,
2013-04-22 17:32:00,41.0,34.0,-100.00,NNE,15,16.0,23.0,75,0.00,,,0.00,,2013-04-22 17:32:00,
2013-04-22 17:42:00,41.0,34.0,-100.00,NNE,30,16.0,23.0,74,0.00,,,0.00,,2013-04-22 17:42:00,
2013-04-22 17:52:00,41.0,34.0,-100.00,NNE,30,14.0,21.0,74,0.00,,,0.00,,2013-04-22 17:52:00,
2013-04-22 18:01:00,41.0,34.0,-100.00,NNE,30,13.0,20.0,74,0.00,,,0.00,,2013-04-22 18:01:00,
2013-04-22 18:12:00,41.0,34.0,-100.00,NNE,30,17.0,21.0,73,0.00,,,0.00,,2013-04-22 18:12:00,
2013-04-22 18:21:00,41.0,34.0,-100.00,NNE,30,16.0,23.0,74,0.00,,,0.00,,2013-04-22 18:21:00,
2013-04-22 18:32:00,40.0,32.0,-100.00,NNE,25,11.0,20.0,72,0.00,,,0.00,,2013-04-22 18:32:00,
2013-04-22 18:42:00,41.0,32.0,-100.00,NNE,20,10.0,19.0,72,0.00,,,0.00,,2013-04-22 18:42:00,
2013-04-22 18:52:00,41.0,34.0,-100.00,North,355,11.0,14.0,73,0.00,,,0.00,,2013-04-22 18:52:00,
2013-04-22 19:01:00,40.0,34.0,-100.00,North,355,11.0,17.0,75,0.00,,,0.00,,2013-04-22 19:01:00,
2013-04-22 19:12:00,39.0,34.0,-100.00,North,0,14.0,17.0,78,0.00,,,0.00,,2013-04-22 19:12:00,
2013-04-22 19:21:00,39.0,34.0,-100.00,North,0,13.0,19.0,82,0.00,,,0.00,,2013-04-22 19:21:00,
2013-04-22 19:32:00,39.0,36.0,-100.00,North,355,15.0,19.0,84,0.00,,,0.00,,2013-04-22 19:32:00,
2013-04-22 19:42:00,39.0,36.0,-100.00,North,0,17.0,21.0,86,0.00,,,0.00,,2013-04-22 19:42:00,
2013-04-22 19:52:00,39.0,36.0,-100.00,North,0,16.0,26.0,86,0.00,,,0.00,,2013-04-22 19:52:00,
2013-04-22 20:02:00,38.0,36.0,-100.00,North,0,22.0,26.0,86,0.00,,,0.00,,2013-04-22 20:02:00,
2013-04-22 20:11:00,39.0,36.0,-100.00,NNE,15,18.0,26.0,86,0.00,,,0.00,,2013-04-22 20:11:00,
2013-04-22 20:22:00,38.0,34.0,-100.00,North,0,22.0,25.0,86,0.00,,,0.00,,2013-04-22 20:22:00,
2013-04-22 20:32:00,37.0,36.0,-100.00,North,10,20.0,30.0,90,0.00,,,0.00,,2013-04-22 20:32:00,
2013-04-22 20:42:00,37.0,36.0,-100.00,North,10,19.0,26.0,92,0.00,,,0.00,,2013-04-22 20:42:00,
2013-04-22 20:52:00,37.0,36.0,-100.00,North,10,17.0,24.0,90,0.00,,,0.00,,2013-04-22 20:52:00,
2013-04-22 21:02:00,37.0,36.0,-100.00,North,0,17.0,21.0,93,0.00,,,0.00,,2013-04-22 21:02:00,
2013-04-22 21:11:00,37.0,37.0,-100.00,North,0,14.0,22.0,97,0.00,,,0.00,,2013-04-22 21:11:00,
2013-04-22 21:32:00,36.0,36.0,-100.00,North,5,16.0,20.0,99,0.00,,,0.00,,2013-04-22 21:32:00,
2013-04-22 21:42:00,36.0,36.0,-100.00,North,5,16.0,25.0,99,0.00,,,0.00,,2013-04-22 21:42:00,
2013-04-22 21:53:00,36.0,36.0,-100.00,NNE,15,16.0,22.0,99,0.00,,,0.00,,2013-04-22 21:53:00,
2013-04-22 22:33:00,35.0,34.0,-100.00,North,10,16.0,21.0,99,0.01,,,0.00,,2013-04-22 22:33:00,
2013-04-22 22:42:00,35.0,34.0,-100.00,North,0,11.0,16.0,99,0.01,,,0.00,,2013-04-22 22:42:00,
2013-04-22 22:52:00,34.0,34.0,-100.00,North,0,15.0,20.0,99,0.01,,,0.01,,2013-04-22 22:52:00,
2013-04-22 23:02:00,34.0,34.0,-100.00,North,0,16.0,21.0,99,0.01,,,0.01,,2013-04-22 23:02:00,
2013-04-22 23:11:00,34.0,34.0,-100.00,North,0,17.0,22.0,99,0.01,,,0.01,,2013-04-22 23:11:00,
2013-04-22 23:21:00,34.0,34.0,-100.00,North,0,17.0,24.0,99,0.01,,,0.01,,2013-04-22 23:21:00,
2013-04-22 23:32:00,34.0,34.0,-100.00,North,0,15.0,20.0,99,0.00,,,0.01,,2013-04-22 23:32:00,
2013-04-22 23:42:00,34.0,34.0,-100.00,North,0,16.0,20.0,99,0.00,,,0.01,,2013-04-22 23:42:00,
2013-04-22 23:52:00,34.0,34.0,-100.00,North,0,14.0,20.0,99,0.00,,,0.01,,2013-04-22 23:52:00,